Mackinac Island, MI

5:57 AM EDT on July 24, 2017 (GMT -0400)
Mackinac Island

Weather History for KMCD - July, 2014

Change the Weather History Date:

Monday, July 14, 2014

  Actual Average Record
Temperature  
Mean Temperature 62 °F -  
Max Temperature 71 °F 71 °F 86 °F (2006)
Min Temperature 54 °F 56 °F 46 °F (1987)
Degree Days  
Heating Degree Days 2    
Growing Degree Days 12 (Base 50)    
Moisture  
Dew Point 52 °F    
Average Humidity 68    
Maximum Humidity 88    
Minimum Humidity 42    
Precipitation  
Precipitation 0.00 in - - ()
Sea Level Pressure  
Sea Level Pressure 29.81 in    
Wind  
Wind Speed 7 mph (SW)    
Max Wind Speed 10 mph    
Max Gust Speed 16 mph    
Visibility 10 miles    
Events Rain    
Averages and records for this station are not official NWS values.
T = Trace of Precipitation, MM = Missing Value Source: NWS Daily Summary

Daily Weather History Graph

Daily Weather History Graph

Search for Another Location

Airport or City:

Trip Planner

Search our weather history database for the weather conditions in past years. The results will help you decide how hot, cold, wet, or windy it might be!

Date:

Astronomy

Jul. 14, 2014 Rise Set
Actual Time 6:02 AM EDT 9:26 PM EDT
Civil Twilight 5:25 AM EDT 10:03 PM EDT
Nautical Twilight 4:36 AM EDT 10:51 PM EDT
Astronomical Twilight 3:34 AM EDT 11:52 PM EDT
Moon 10:42 PM EDT (7/14) 8:54 AM EDT (7/14)
Length of Visible Light 16h 37m
Length of Day
15h 24m
Waning Gibbous, 93% of the Moon is Illuminated
Jul 14
Waning Gibbous
Jul 18
Last Quarter
Jul 26
New
Aug 3
First Quarter
Aug 10
Full

Hourly Weather History & Observations

Time (EDT) Temp. Dew Point Humidity Pressure Visibility Wind Dir Wind Speed Gust Speed Precip Events Conditions
12:16 AM 54.7 °F 49.1 °F 81% 29.86 in 10.0 mi SE 6.9 mph - N/A   Scattered Clouds
12:37 AM 57.9 °F 49.6 °F 74% 29.85 in 10.0 mi SE 8.1 mph - N/A   Mostly Cloudy
12:57 AM 58.6 °F 48.7 °F 70% 29.85 in 10.0 mi SSE 6.9 mph - N/A   Mostly Cloudy
1:17 AM 59.4 °F 49.1 °F 69% 29.85 in 10.0 mi SE 8.1 mph - N/A   Overcast
1:37 AM 59.0 °F 49.1 °F 70% 29.85 in 10.0 mi SSE 8.1 mph - N/A   Scattered Clouds
1:57 AM 58.5 °F 49.8 °F 73% 29.84 in 10.0 mi SSE 4.6 mph - N/A   Scattered Clouds
2:17 AM 58.8 °F 50.9 °F 75% 29.84 in 10.0 mi SSE 8.1 mph - N/A   Overcast
2:37 AM 59.0 °F 51.4 °F 76% 29.84 in 10.0 mi SSE 6.9 mph - N/A   Overcast
2:57 AM 59.0 °F 51.8 °F 77% 29.83 in 10.0 mi SSE 8.1 mph - N/A   Overcast
3:17 AM 58.3 °F 51.8 °F 79% 29.83 in 10.0 mi SSE 8.1 mph - N/A   Mostly Cloudy
3:37 AM 57.7 °F 52.2 °F 82% 29.82 in 10.0 mi SSE 9.2 mph - N/A   Scattered Clouds
3:57 AM 57.2 °F 52.7 °F 85% 29.82 in 7.0 mi South 9.2 mph - N/A   Scattered Clouds
4:17 AM 57.2 °F 53.6 °F 88% 29.82 in 10.0 mi SSE 9.2 mph - N/A   Scattered Clouds
4:37 AM 57.7 °F 53.6 °F 86% 29.81 in 10.0 mi SSE 9.2 mph - N/A   Overcast
4:57 AM 58.1 °F 53.6 °F 85% 29.81 in 10.0 mi South 8.1 mph - N/A   Overcast
5:17 AM 57.2 °F 52.9 °F 85% 29.81 in 10.0 mi South 8.1 mph - N/A   Scattered Clouds
5:37 AM 57.4 °F 53.2 °F 86% 29.81 in 10.0 mi SSE 8.1 mph - N/A   Mostly Cloudy
5:57 AM 58.1 °F 52.9 °F 83% 29.81 in 10.0 mi South 8.1 mph - N/A   Overcast
6:17 AM 58.1 °F 52.9 °F 83% 29.81 in 10.0 mi South 8.1 mph - N/A   Overcast
6:37 AM 57.7 °F 52.0 °F 81% 29.81 in 10.0 mi South 8.1 mph - N/A   Scattered Clouds
6:57 AM 57.7 °F 52.2 °F 82% 29.81 in 10.0 mi South 8.1 mph - N/A   Scattered Clouds
7:17 AM 57.6 °F 52.2 °F 82% 29.81 in 10.0 mi South 5.8 mph - N/A   Scattered Clouds
7:37 AM 58.5 °F 52.7 °F 81% 29.81 in 10.0 mi South 6.9 mph - N/A   Clear
7:57 AM 59.4 °F 52.2 °F 77% 29.81 in 10.0 mi South 5.8 mph - N/A   Clear
8:17 AM 60.1 °F 52.7 °F 77% 29.81 in 10.0 mi South 8.1 mph - N/A   Clear
8:37 AM 59.7 °F 52.7 °F 78% 29.81 in 10.0 mi South 4.6 mph - N/A   Clear
8:57 AM 61.5 °F 53.6 °F 75% 29.81 in 10.0 mi South 4.6 mph - N/A   Scattered Clouds
9:17 AM 62.2 °F 54.5 °F 76% 29.81 in 10.0 mi WSW 3.5 mph - N/A   Clear
9:57 AM 63.9 °F 55.8 °F 75% 29.81 in 10.0 mi WSW 5.8 mph - N/A   Mostly Cloudy
10:17 AM 63.9 °F 55.8 °F 75% 29.81 in 10.0 mi WSW 8.1 mph 16.1 mph N/A   Overcast
10:37 AM 64.9 °F 56.5 °F 74% 29.81 in 10.0 mi West 6.9 mph - N/A   Mostly Cloudy
10:57 AM 65.3 °F 56.5 °F 73% 29.82 in 10.0 mi West 8.1 mph - N/A   Scattered Clouds
11:17 AM 65.5 °F 55.6 °F 70% 29.82 in 10.0 mi West 6.9 mph - N/A   Clear
11:37 AM 66.2 °F 55.6 °F 69% 29.82 in 10.0 mi West 8.1 mph - N/A   Clear
11:57 AM 65.5 °F 56.3 °F 72% 29.83 in 10.0 mi WSW 6.9 mph - N/A   Clear
12:17 PM 65.7 °F 56.1 °F 71% 29.83 in 10.0 mi WSW 6.9 mph - N/A   Clear
12:37 PM 66.2 °F 51.8 °F 60% 29.83 in 10.0 mi WSW 8.1 mph - N/A   Clear
12:57 PM 66.7 °F 52.0 °F 59% 29.82 in 10.0 mi WSW 5.8 mph - N/A   Clear
1:17 PM 67.5 °F 50.4 °F 54% 29.82 in 10.0 mi SW 4.6 mph - N/A   Clear
1:37 PM 68.4 °F 50.2 °F 52% 29.82 in 10.0 mi WSW 6.9 mph - N/A   Clear
1:56 PM 69.3 °F 50.0 °F 50% 29.81 in 10.0 mi WSW 9.2 mph - N/A   Clear
2:17 PM 69.6 °F 51.1 °F 52% 29.81 in 10.0 mi West 5.8 mph - N/A   Clear
2:37 PM 69.8 °F 51.3 °F 52% 29.81 in 10.0 mi WSW 5.8 mph - N/A   Clear
2:57 PM 70.0 °F 50.5 °F 50% 29.80 in 10.0 mi West 8.1 mph - N/A   Clear
3:17 PM 70.2 °F 51.3 °F 51% 29.80 in 10.0 mi West 9.2 mph - N/A   Clear
3:37 PM 71.1 °F 49.1 °F 46% 29.80 in 10.0 mi West 6.9 mph - N/A   Clear
3:57 PM 70.9 °F 49.3 °F 46% 29.80 in 10.0 mi West 5.8 mph - N/A   Clear
4:17 PM 71.4 °F 49.3 °F 45% 29.80 in 10.0 mi West 8.1 mph - N/A   Clear
4:57 PM 71.1 °F 47.8 °F 44% 29.79 in 10.0 mi West 4.6 mph - N/A   Clear
5:37 PM 70.9 °F 47.3 °F 43% 29.78 in 10.0 mi WNW 4.6 mph - N/A   Clear
5:57 PM 71.2 °F 47.8 °F 43% 29.78 in 10.0 mi Calm Calm - N/A   Scattered Clouds
6:37 PM 70.7 °F 46.8 °F 42% 29.79 in 10.0 mi West 3.5 mph - N/A   Scattered Clouds
6:57 PM 70.7 °F 47.5 °F 44% 29.79 in 10.0 mi West 3.5 mph - N/A   Scattered Clouds
7:18 PM 70.7 °F 48.0 °F 44% 29.79 in 10.0 mi WNW 3.5 mph - N/A   Scattered Clouds
7:37 PM 69.4 °F 49.3 °F 49% 29.78 in 10.0 mi Calm Calm - N/A   Scattered Clouds
7:57 PM 69.1 °F 50.4 °F 51% 29.78 in 10.0 mi Calm Calm - N/A   Mostly Cloudy
8:17 PM 69.6 °F 49.6 °F 49% 29.78 in 10.0 mi Calm Calm - N/A   Overcast
8:37 PM 66.6 °F 52.3 °F 60% 29.79 in 10.0 mi NNE 9.2 mph - N/A   Mostly Cloudy
8:58 PM 64.0 °F 52.7 °F 67% 29.79 in 10.0 mi NNE 10.4 mph - N/A   Scattered Clouds
9:17 PM 63.1 °F 52.9 °F 69% 29.80 in 10.0 mi North 9.2 mph - N/A   Mostly Cloudy
9:37 PM 61.9 °F 50.0 °F 65% 29.80 in 10.0 mi NNE 9.2 mph - N/A   Overcast
9:58 PM 60.3 °F 50.0 °F 69% 29.81 in 10.0 mi NNE 9.2 mph - N/A   Overcast
10:17 PM 59.2 °F 50.0 °F 72% 29.81 in 10.0 mi North 10.4 mph 16.1 mph N/A   Overcast
10:37 PM 58.3 °F 50.2 °F 74% 29.82 in 10.0 mi North 8.1 mph - N/A   Overcast
10:58 PM 57.7 °F 50.9 °F 78% 29.82 in 10.0 mi North 8.1 mph - N/A   Overcast
11:17 PM 57.6 °F 51.6 °F 81% 29.81 in 10.0 mi NNE 8.1 mph - N/A   Overcast
11:38 PM 57.2 °F 51.8 °F 82% 29.81 in 10.0 mi NE 8.1 mph - N/A   Overcast
11:57 PM 56.3 °F 52.0 °F 85% 29.80 in 10.0 mi NNE 10.4 mph - N/A Rain Light Rain